Location: Augusta
(33.4710°N, 81.9750°W)
Time: 01:07:34
(UTC-04:00)

N. Korean satellite - Visible Passes

Search period start: 28 September 2020 00:00
Search period end: 08 October 2020 00:00
Orbit: 455 x 503 km, 97.2° (Epoch: 27 September)

Date Brightness Start Highest point End Pass type
(mag) Time Alt. Az. Time Alt. Az. Time Alt. Az.
28 Sep 9.0 06:22:44 10° NE 06:25:47 26° E 06:28:46 10° SSE visible
29 Sep 10.1 05:58:20 10° ENE 05:59:36 12° E 06:00:51 10° ESE visible
01 Oct 7.9 06:37:37 10° NNE 06:41:02 43° E 06:44:22 10° S visible
02 Oct 9.6 06:12:21 10° NE 06:14:54 18° E 06:17:24 10° SE visible
04 Oct 6.7 06:52:41 10° NNE 06:56:13 76° E 06:59:41 10° S visible
05 Oct 8.7 06:27:00 10° NE 06:30:08 29° E 06:33:12 10° SSE visible
06 Oct 10.0 06:02:14 10° ENE 06:03:57 13° E 06:05:37 10° ESE visible
